TimePDT,TemperatureF,Dew PointF,Humidity,Sea Level PressureIn,VisibilityMPH,Wind Direction,Wind SpeedMPH,Gust SpeedMPH,PrecipitationIn,Events,Conditions,WindDirDegrees,DateUTC
12:15 AM,60.8,55.4,82,30.00,10.0,West,3.5,-,N/A,,Overcast,260,2013-09-13 07:15:00
12:35 AM,60.8,55.4,82,30.00,10.0,Calm,Calm,-,N/A,,Overcast,0,2013-09-13 07:35:00
12:55 AM,60.8,55.4,82,30.00,10.0,Calm,Calm,-,N/A,,Overcast,0,2013-09-13 07:55:00
1:15 AM,60.8,57.2,88,30.00,10.0,Calm,Calm,-,N/A,,Overcast,0,2013-09-13 08:15:00
1:35 AM,60.8,57.2,88,30.01,10.0,Calm,Calm,-,N/A,,Overcast,0,2013-09-13 08:35:00
1:55 AM,60.8,57.2,88,30.01,10.0,Calm,Calm,-,N/A,,Overcast,0,2013-09-13 08:55:00
2:15 AM,60.8,55.4,82,30.01,10.0,Calm,Calm,-,N/A,,Overcast,0,2013-09-13 09:15:00
2:35 AM,60.8,55.4,82,30.01,10.0,Calm,Calm,-,N/A,,Overcast,0,2013-09-13 09:35:00
2:55 AM,60.8,55.4,82,30.02,9.0,WNW,3.5,-,N/A,,Overcast,300,2013-09-13 09:55:00
3:15 AM,60.8,55.4,82,30.02,10.0,NW,3.5,-,N/A,,Overcast,320,2013-09-13 10:15:00
3:35 AM,60.8,55.4,82,30.02,10.0,NW,3.5,-,N/A,,Overcast,310,2013-09-13 10:35:00
3:55 AM,60.8,55.4,82,30.02,6.0,NW,4.6,-,N/A,,Overcast,320,2013-09-13 10:55:00
4:15 AM,60.8,55.4,82,30.01,4.0,NW,3.5,-,N/A,,Overcast,320,2013-09-13 11:15:00
4:35 AM,60.8,55.4,82,30.01,10.0,NNW,3.5,-,N/A,,Overcast,340,2013-09-13 11:35:00
4:55 AM,60.8,55.4,82,30.01,10.0,Calm,Calm,-,N/A,,Overcast,0,2013-09-13 11:55:00
5:15 AM,60.8,55.4,82,30.01,4.0,NW,3.5,-,N/A,,Overcast,320,2013-09-13 12:15:00
5:35 AM,60.8,55.4,82,30.01,7.0,Calm,Calm,-,N/A,,Overcast,0,2013-09-13 12:35:00
5:55 AM,60.8,55.4,82,30.01,8.0,NW,3.5,-,N/A,,Overcast,320,2013-09-13 12:55:00
6:15 AM,60.8,55.4,82,30.01,10.0,Calm,Calm,-,N/A,,Overcast,0,2013-09-13 13:15:00
6:35 AM,60.8,55.4,82,30.01,10.0,Calm,Calm,-,N/A,,Overcast,0,2013-09-13 13:35:00
6:55 AM,60.8,55.4,82,30.01,10.0,Calm,Calm,-,N/A,,Overcast,0,2013-09-13 13:55:00
7:15 AM,60.8,55.4,82,30.01,10.0,Calm,Calm,-,N/A,,Overcast,0,2013-09-13 14:15:00
7:35 AM,60.8,55.4,82,30.01,5.0,Calm,Calm,-,N/A,,Overcast,0,2013-09-13 14:35:00
7:55 AM,60.8,55.4,82,30.01,1.8,Calm,Calm,-,N/A,,Overcast,0,2013-09-13 14:55:00
8:15 AM,60.8,55.4,82,30.01,2.5,WNW,3.5,-,N/A,,Overcast,290,2013-09-13 15:15:00
8:35 AM,60.8,57.2,88,30.01,2.5,Calm,Calm,-,N/A,,Overcast,0,2013-09-13 15:35:00
8:55 AM,60.8,57.2,88,30.01,9.0,Calm,Calm,-,N/A,,Overcast,0,2013-09-13 15:55:00
9:15 AM,60.8,55.4,82,30.01,10.0,Calm,Calm,-,N/A,,Overcast,0,2013-09-13 16:15:00
9:35 AM,62.6,55.4,77,30.01,10.0,Calm,Calm,-,N/A,,Overcast,0,2013-09-13 16:35:00
9:55 AM,62.6,55.4,77,30.01,10.0,Calm,Calm,-,N/A,,Overcast,0,2013-09-13 16:55:00
10:15 AM,62.6,55.4,77,30.01,10.0,NW,3.5,-,N/A,,Overcast,310,2013-09-13 17:15:00
10:35 AM,62.6,55.4,77,30.01,10.0,Calm,Calm,-,N/A,,Overcast,0,2013-09-13 17:35:00
10:55 AM,62.6,55.4,77,30.01,10.0,Calm,Calm,-,N/A,,Overcast,0,2013-09-13 17:55:00
11:15 AM,62.6,55.4,77,30.00,10.0,Calm,Calm,-,N/A,,Overcast,0,2013-09-13 18:15:00
11:35 AM,64.4,55.4,73,30.00,10.0,Calm,Calm,-,N/A,,Overcast,0,2013-09-13 18:35:00
11:55 AM,64.4,55.4,73,29.99,10.0,Calm,Calm,-,N/A,,Overcast,0,2013-09-13 18:55:00
12:15 PM,64.4,57.2,77,29.99,10.0,WSW,3.5,-,N/A,,Overcast,250,2013-09-13 19:15:00
12:35 PM,64.4,57.2,77,29.98,10.0,WNW,3.5,-,N/A,,Overcast,290,2013-09-13 19:35:00
12:55 PM,64.4,55.4,73,29.98,10.0,West,4.6,-,N/A,,Overcast,280,2013-09-13 19:55:00
1:15 PM,64.4,57.2,77,29.98,10.0,WNW,4.6,-,N/A,,Overcast,290,2013-09-13 20:15:00
1:35 PM,64.4,57.2,77,29.97,10.0,Calm,Calm,-,N/A,,Overcast,0,2013-09-13 20:35:00
1:55 PM,64.4,57.2,77,29.97,10.0,West,4.6,-,N/A,,Overcast,280,2013-09-13 20:55:00
2:15 PM,64.4,57.2,77,29.97,10.0,Calm,Calm,-,N/A,,Overcast,0,2013-09-13 21:15:00
2:35 PM,64.4,57.2,77,29.97,10.0,West,3.5,-,N/A,,Overcast,260,2013-09-13 21:35:00
2:55 PM,66.2,57.2,73,29.96,10.0,WNW,3.5,-,N/A,,Overcast,300,2013-09-13 21:55:00
3:15 PM,66.2,57.2,73,29.95,10.0,WNW,3.5,-,N/A,,Overcast,300,2013-09-13 22:15:00
3:35 PM,66.2,57.2,73,29.95,10.0,West,3.5,-,N/A,,Overcast,280,2013-09-13 22:35:00
3:55 PM,66.2,57.2,73,29.94,10.0,West,4.6,-,N/A,,Overcast,280,2013-09-13 22:55:00
4:15 PM,66.2,57.2,73,29.94,10.0,NW,4.6,-,N/A,,Overcast,310,2013-09-13 23:15:00
4:35 PM,66.2,57.2,73,29.94,10.0,North,6.9,-,N/A,,Overcast,350,2013-09-13 23:35:00
4:55 PM,66.2,57.2,73,29.93,10.0,NNW,5.8,-,N/A,,Overcast,330,2013-09-13 23:55:00
5:15 PM,66.2,57.2,73,29.93,10.0,Calm,Calm,-,N/A,,Overcast,0,2013-09-14 00:15:00
5:35 PM,66.2,57.2,73,29.92,10.0,NW,3.5,-,N/A,,Overcast,310,2013-09-14 00:35:00
5:55 PM,66.2,57.2,73,29.92,10.0,NW,4.6,-,N/A,,Overcast,310,2013-09-14 00:55:00
6:15 PM,66.2,57.2,73,29.92,10.0,NW,3.5,-,N/A,,Overcast,310,2013-09-14 01:15:00
6:35 PM,66.2,57.2,73,29.91,10.0,Calm,Calm,-,N/A,,Overcast,0,2013-09-14 01:35:00
6:55 PM,64.4,57.2,77,29.91,10.0,WNW,3.5,-,N/A,,Overcast,290,2013-09-14 01:55:00
7:15 PM,64.4,57.2,77,29.90,10.0,Calm,Calm,-,N/A,,Overcast,0,2013-09-14 02:15:00
7:35 PM,64.4,57.2,77,29.90,10.0,Calm,Calm,-,N/A,,Overcast,0,2013-09-14 02:35:00
7:55 PM,64.4,57.2,77,29.91,10.0,NNW,3.5,-,N/A,,Overcast,330,2013-09-14 02:55:00
8:15 PM,64.4,57.2,77,29.91,10.0,NW,4.6,-,N/A,,Overcast,310,2013-09-14 03:15:00
8:35 PM,64.4,57.2,77,29.91,10.0,NW,3.5,-,N/A,,Overcast,310,2013-09-14 03:35:00
8:55 PM,64.4,57.2,77,29.91,10.0,NW,3.5,-,N/A,,Overcast,320,2013-09-14 03:55:00
9:15 PM,64.4,57.2,77,29.91,10.0,NW,3.5,-,N/A,,Overcast,310,2013-09-14 04:15:00
9:35 PM,64.4,57.2,77,29.92,10.0,North,3.5,-,N/A,,Overcast,350,2013-09-14 04:35:00
9:55 PM,64.4,57.2,77,29.91,10.0,Calm,Calm,-,N/A,,Overcast,0,2013-09-14 04:55:00
10:15 PM,64.4,57.2,77,29.91,10.0,WNW,3.5,-,N/A,,Overcast,300,2013-09-14 05:15:00
10:35 PM,64.4,57.2,77,29.91,10.0,NNW,8.1,-,N/A,,Overcast,340,2013-09-14 05:35:00
10:55 PM,64.4,57.2,77,29.91,10.0,North,9.2,-,N/A,,Overcast,350,2013-09-14 05:55:00
11:15 PM,64.4,57.2,77,29.91,10.0,North,6.9,-,N/A,,Overcast,350,2013-09-14 06:15:00
11:35 PM,64.4,57.2,77,29.91,10.0,NNW,5.8,-,N/A,,Overcast,340,2013-09-14 06:35:00
11:55 PM,62.6,57.2,82,29.91,10.0,NNW,5.8,-,N/A,,Overcast,340,2013-09-14 06:55:00